TimeCST,TemperatureF,Dew PointF,Humidity,Sea Level PressureIn,VisibilityMPH,Wind Direction,Wind SpeedMPH,Gust SpeedMPH,PrecipitationIn,Events,Conditions,WindDirDegrees,DateUTC
12:41 AM,71.6,68.0,88,30.04,7.0,North,5.8,-,N/A,,Scattered Clouds,360,2012-11-16 06:41:00
1:43 AM,71.6,68.0,88,30.04,7.0,North,10.4,-,N/A,,Scattered Clouds,360,2012-11-16 07:43:00
2:44 AM,71.6,68.0,88,30.05,7.0,North,8.1,-,N/A,,Scattered Clouds,360,2012-11-16 08:44:00
4:00 AM,69.8,68.0,94,30.03,7.0,ENE,4.6,-,N/A,,Scattered Clouds,60,2012-11-16 10:00:00
4:40 AM,68.0,66.2,94,30.04,7.0,Calm,Calm,-,N/A,,Scattered Clouds,0,2012-11-16 10:40:00
5:58 AM,69.8,68.0,94,30.01,7.0,North,8.1,-,N/A,,Scattered Clouds,360,2012-11-16 11:58:00
6:45 AM,69.8,68.0,94,30.05,7.0,North,6.9,-,N/A,,Partly Cloudy,360,2012-11-16 12:45:00
7:40 AM,73.4,68.0,83,30.06,8.0,NNE,8.1,-,N/A,,Scattered Clouds,20,2012-11-16 13:40:00
8:42 AM,75.2,68.0,78,30.11,8.0,North,9.2,-,N/A,,Scattered Clouds,360,2012-11-16 14:42:00
9:40 AM,77.0,68.0,74,30.08,8.0,North,15.0,-,N/A,,Scattered Clouds,360,2012-11-16 15:40:00
10:40 AM,78.8,68.0,69,30.07,10.0,NNE,10.4,-,N/A,,Clear,20,2012-11-16 16:40:00
11:43 AM,80.6,66.2,61,30.02,10.0,NNE,9.2,-,N/A,,Clear,20,2012-11-16 17:43:00
12:46 PM,80.6,64.4,58,30.02,10.0,NE,9.2,-,N/A,,Clear,40,2012-11-16 18:46:00
1:40 PM,78.8,64.4,61,30.01,10.0,NE,11.5,-,N/A,,Scattered Clouds,40,2012-11-16 19:40:00
2:42 PM,78.8,66.2,65,30.02,10.0,ENE,4.6,-,N/A,,Scattered Clouds,60,2012-11-16 20:42:00
3:51 PM,68.0,66.2,94,30.01,3.0,ENE,13.8,-,N/A,Rain,Light Rain,60,2012-11-16 21:51:00
4:42 PM,68.0,66.2,94,30.02,8.0,East,4.6,-,N/A,,Mostly Cloudy,100,2012-11-16 22:42:00
5:50 PM,68.0,68.0,100,30.00,7.0,Calm,Calm,-,N/A,,Scattered Clouds,0,2012-11-16 23:50:00
6:41 PM,68.0,68.0,100,30.04,7.0,North,6.9,-,N/A,,Scattered Clouds,10,2012-11-17 00:41:00
7:44 PM,69.8,68.0,94,30.06,7.0,North,6.9,-,N/A,,Scattered Clouds,10,2012-11-17 01:44:00
8:50 PM,69.8,66.2,88,30.09,7.0,North,6.9,-,N/A,,Partly Cloudy,350,2012-11-17 02:50:00
9:43 PM,69.8,64.4,83,30.07,7.0,NNW,9.2,-,N/A,,Partly Cloudy,340,2012-11-17 03:43:00
10:47 PM,69.8,66.2,88,30.06,7.0,North,9.2,-,N/A,,Partly Cloudy,350,2012-11-17 04:47:00
11:45 PM,69.8,66.2,88,30.02,7.0,North,9.2,-,N/A,,Clear,350,2012-11-17 05:45:00